Location: Gradaro
(45.0833°N, 10.8833°E)
Time: 06:35:05
(UTC+00:00)

FENGYUN 1C DEB - Pass Details

Date: 25 June 2021
Orbit: 744 x 851 km, 99.4° (Epoch: 19 July)

Event Time Altitude Azimuth Distance (km) Brightness Sun altitude
Exits shadow 21:58:16 - 97° (E) 2,716 ? -19.1°
Reaches altitude 10° 21:59:31 10° 87° (E) 2,421 ? -19.2°
Maximum altitude 22:02:15 14° 56° (NE) 2,115 ? -19.3°
Drops below altitude 10° 22:04:57 10° 24° (NNE) 2,393 ? -19.5°
Sets 22:08:20 0° 1° (N) 3,305 ? -19.7°
